When you browse on this site, cookies collect data to enhance your experience and personalize the content and advertising you see.
Visit our Privacy Policy to learn more. By continuing to use the site, you agree to this use of cookies and data.

Stündliche Wetter Yelsk

Heute, 7 Juli, Dienstag

Zeit Temperatur Niederschläge Wind Luftdruck Luftfeuchtigkeit
00:00 +21°C° 0 mm 1 m/S 740 mmHg 83%
01:00 +21°C° 0 mm 1 m/S 739 mmHg 85%
02:00 +20°C° 0 mm 1 m/S 739 mmHg 88%
03:00 +20°C° 0 mm 1 m/S 739 mmHg 88%
04:00 +21°C° 0 mm 1 m/S 739 mmHg 88%
05:00 +20°C° 0 mm 2 m/S 739 mmHg 88%
06:00 +20°C° 0.3 mm 3 m/S 739 mmHg 89%
07:00 +21°C° 0.3 mm 4 m/S 739 mmHg 89%
08:00 +21°C° 0.3 mm 5 m/S 740 mmHg 89%
09:00 +21°C° 0.2 mm 5 m/S 740 mmHg 85%
10:00 +21°C° 0.2 mm 5 m/S 740 mmHg 80%
11:00 +21°C° 0.2 mm 5 m/S 740 mmHg 76%
12:00 +20°C° 0.1 mm 6 m/S 740 mmHg 78%
13:00 +19°C° 0.1 mm 6 m/S 740 mmHg 80%
14:00 +17°C° 0.1 mm 6 m/S 741 mmHg 81%
15:00 +16°C° 0 mm 6 m/S 741 mmHg 79%
16:00 +15°C° 0 mm 6 m/S 741 mmHg 77%
17:00 +14°C° 0 mm 6 m/S 741 mmHg 75%
18:00 +14°C° 0 mm 6 m/S 742 mmHg 73%
19:00 +14°C° 0 mm 5 m/S 742 mmHg 71%
20:00 +14°C° 0 mm 5 m/S 742 mmHg 69%
21:00 +14°C° 0 mm 4 m/S 742 mmHg 70%
22:00 +13°C° 0 mm 4 m/S 742 mmHg 71%
23:00 +13°C° 0 mm 4 m/S 742 mmHg 72%

Morgen, 8 Juli, Mittwoch

Zeit Temperatur Niederschläge Wind Luftdruck Luftfeuchtigkeit
00:00 +13°C° 0 mm 4 m/S 743 mmHg 76%
01:00 +13°C° 0 mm 4 m/S 743 mmHg 80%
02:00 +13°C° 0 mm 4 m/S 743 mmHg 85%
03:00 +13°C° 0 mm 4 m/S 743 mmHg 85%
04:00 +13°C° 0 mm 4 m/S 743 mmHg 85%
05:00 +12°C° 0 mm 4 m/S 743 mmHg 86%
06:00 +13°C° 0 mm 4 m/S 744 mmHg 79%
07:00 +14°C° 0 mm 4 m/S 744 mmHg 73%
08:00 +15°C° 0 mm 5 m/S 744 mmHg 67%
09:00 +16°C° 0 mm 5 m/S 745 mmHg 63%
10:00 +17°C° 0 mm 5 m/S 745 mmHg 59%
11:00 +19°C° 0 mm 5 m/S 745 mmHg 55%
12:00 +20°C° 0 mm 5 m/S 745 mmHg 53%
13:00 +21°C° 0 mm 5 m/S 745 mmHg 51%
14:00 +21°C° 0 mm 5 m/S 745 mmHg 49%
15:00 +21°C° 0 mm 4 m/S 745 mmHg 50%
16:00 +21°C° 0 mm 4 m/S 745 mmHg 52%
17:00 +21°C° 0 mm 3 m/S 745 mmHg 54%
18:00 +19°C° 0 mm 3 m/S 746 mmHg 60%
19:00 +18°C° 0 mm 2 m/S 746 mmHg 67%
20:00 +16°C° 0 mm 2 m/S 746 mmHg 74%
21:00 +15°C° 0 mm 2 m/S 746 mmHg 78%
22:00 +14°C° 0 mm 2 m/S 746 mmHg 81%
23:00 +13°C° 0 mm 2 m/S 746 mmHg 85%

übermorgen, 9 Juli, Donnerstag

Zeit Temperatur Niederschläge Wind Luftdruck Luftfeuchtigkeit
00:00 +13°C° 0 mm 2 m/S 747 mmHg 88%
01:00 +12°C° 0 mm 2 m/S 747 mmHg 91%
02:00 +12°C° 0 mm 2 m/S 747 mmHg 94%
03:00 +12°C° 0 mm 2 m/S 747 mmHg 93%
04:00 +13°C° 0 mm 2 m/S 747 mmHg 91%
05:00 +13°C° 0 mm 2 m/S 747 mmHg 90%
06:00 +13°C° 0.1 mm 2 m/S 747 mmHg 90%
07:00 +14°C° 0.1 mm 2 m/S 748 mmHg 90%
08:00 +14°C° 0.1 mm 2 m/S 748 mmHg 90%
09:00 +16°C° 0.1 mm 2 m/S 748 mmHg 83%
10:00 +17°C° 0.1 mm 2 m/S 748 mmHg 77%
11:00 +18°C° 0.1 mm 3 m/S 748 mmHg 70%
12:00 +19°C° 0.2 mm 3 m/S 748 mmHg 69%
13:00 +19°C° 0.2 mm 3 m/S 748 mmHg 67%
14:00 +20°C° 0.2 mm 3 m/S 748 mmHg 66%
15:00 +20°C° 0.1 mm 3 m/S 748 mmHg 63%
16:00 +21°C° 0.1 mm 3 m/S 748 mmHg 60%
17:00 +21°C° 0.1 mm 3 m/S 748 mmHg 58%
18:00 +20°C° 0.1 mm 2 m/S 748 mmHg 66%
19:00 +18°C° 0.1 mm 2 m/S 748 mmHg 75%
20:00 +16°C° 0.1 mm 1 m/S 748 mmHg 84%
21:00 +15°C° 0 mm 1 m/S 749 mmHg 86%
22:00 +14°C° 0 mm 1 m/S 749 mmHg 89%
23:00 +14°C° 0 mm 1 m/S 749 mmHg 91%

10 Juli, Freitag

Zeit Temperatur Niederschläge Wind Luftdruck Luftfeuchtigkeit
00:00 +13°C° 0 mm 1 m/S 749 mmHg 92%
01:00 +13°C° 0 mm 1 m/S 750 mmHg 92%
02:00 +13°C° 0 mm 1 m/S 750 mmHg 93%
03:00 +13°C° 0 mm 1 m/S 750 mmHg 92%
04:00 +13°C° 0 mm 1 m/S 750 mmHg 92%
05:00 +12°C° 0 mm 0 m/S 750 mmHg 91%
06:00 +15°C° 0 mm 1 m/S 750 mmHg 85%
07:00 +18°C° 0 mm 1 m/S 750 mmHg 78%
08:00 +20°C° 0 mm 1 m/S 750 mmHg 71%
09:00 +20°C° 0 mm 2 m/S 750 mmHg 65%
10:00 +23°C° 0 mm 2 m/S 750 mmHg 59%
11:00 +24°C° 0 mm 2 m/S 750 mmHg 52%
12:00 +25°C° 0 mm 3 m/S 750 mmHg 52%
13:00 +25°C° 0 mm 3 m/S 750 mmHg 51%
14:00 +26°C° 0 mm 3 m/S 749 mmHg 51%
15:00 +26°C° 0 mm 3 m/S 749 mmHg 53%
16:00 +26°C° 0 mm 3 m/S 749 mmHg 55%
17:00 +26°C° 0 mm 3 m/S 748 mmHg 56%
18:00 +24°C° 0 mm 3 m/S 748 mmHg 64%
19:00 +22°C° 0 mm 3 m/S 748 mmHg 72%
20:00 +20°C° 0 mm 3 m/S 748 mmHg 79%
21:00 +20°C° 0 mm 3 m/S 748 mmHg 80%
22:00 +20°C° 0 mm 3 m/S 748 mmHg 80%
23:00 +19°C° 0 mm 4 m/S 748 mmHg 80%

11 Juli, Samstag

Zeit Temperatur Niederschläge Wind Luftdruck Luftfeuchtigkeit
00:00 +19°C° 0 mm 4 m/S 748 mmHg 82%
01:00 +19°C° 0 mm 4 m/S 748 mmHg 84%
02:00 +18°C° 0 mm 4 m/S 748 mmHg 85%
03:00 +18°C° 0 mm 4 m/S 747 mmHg 86%
04:00 +18°C° 0 mm 4 m/S 747 mmHg 86%
05:00 +18°C° 0 mm 3 m/S 747 mmHg 86%
06:00 +20°C° 0 mm 4 m/S 747 mmHg 80%
07:00 +21°C° 0 mm 4 m/S 747 mmHg 74%
08:00 +23°C° 0 mm 4 m/S 747 mmHg 67%
09:00 +25°C° 0 mm 5 m/S 747 mmHg 64%
10:00 +27°C° 0 mm 5 m/S 747 mmHg 60%
11:00 +28°C° 0 mm 5 m/S 747 mmHg 56%
12:00 +28°C° 0.8 mm 5 m/S 747 mmHg 61%
13:00 +27°C° 0.8 mm 4 m/S 747 mmHg 66%
14:00 +27°C° 0.8 mm 4 m/S 747 mmHg 71%
15:00 +26°C° 1.6 mm 4 m/S 747 mmHg 76%
16:00 +23°C° 1.6 mm 4 m/S 747 mmHg 80%
17:00 +22°C° 1.6 mm 4 m/S 747 mmHg 85%
18:00 +21°C° 0.6 mm 3 m/S 747 mmHg 85%
19:00 +19°C° 0.6 mm 3 m/S 747 mmHg 85%
20:00 +18°C° 0.6 mm 3 m/S 747 mmHg 85%
21:00 +17°C° 0.7 mm 3 m/S 747 mmHg 86%
22:00 +17°C° 0.7 mm 2 m/S 747 mmHg 87%
23:00 +16°C° 0.7 mm 2 m/S 747 mmHg 88%

12 Juli, Sonntag

Zeit Temperatur Niederschläge Wind Luftdruck Luftfeuchtigkeit
00:00 +14°C° 0.1 mm 3 m/S 747 mmHg 88%
01:00 +14°C° 0.1 mm 3 m/S 747 mmHg 88%
02:00 +13°C° 0.1 mm 4 m/S 747 mmHg 88%
03:00 +13°C° 0.1 mm 4 m/S 747 mmHg 89%
04:00 +13°C° 0.1 mm 4 m/S 747 mmHg 90%
05:00 +13°C° 0.1 mm 4 m/S 747 mmHg 90%
06:00 +13°C° 1.5 mm 4 m/S 747 mmHg 92%
07:00 +12°C° 1.5 mm 4 m/S 747 mmHg 93%
08:00 +12°C° 1.5 mm 4 m/S 747 mmHg 94%
09:00 +12°C° 2 mm 4 m/S 747 mmHg 95%
10:00 +12°C° 2 mm 4 m/S 748 mmHg 95%
11:00 +12°C° 2 mm 4 m/S 748 mmHg 95%
12:00 +12°C° 2.5 mm 4 m/S 748 mmHg 94%
13:00 +12°C° 2.5 mm 4 m/S 748 mmHg 93%
14:00 +12°C° 2.5 mm 4 m/S 748 mmHg 92%
15:00 +13°C° 0.1 mm 4 m/S 748 mmHg 88%
16:00 +13°C° 0.1 mm 3 m/S 748 mmHg 85%
17:00 +14°C° 0.1 mm 3 m/S 748 mmHg 81%
18:00 +14°C° 0 mm 2 m/S 748 mmHg 84%
19:00 +13°C° 0 mm 1 m/S 748 mmHg 87%
20:00 +13°C° 0 mm 1 m/S 748 mmHg 91%
21:00 +12°C° 0 mm 1 m/S 748 mmHg 92%
22:00 +12°C° 0 mm 1 m/S 748 mmHg 93%
23:00 +10°C° 0 mm 2 m/S 748 mmHg 95%
Mehr zeigen